Temperature
18 19 19 18 18 18 18 18 19 19 19 19 19 19 18 18 18 18 17 17 17 18 18 18 18 18 18 18 17 17 17 17 17 17 17 17 18 18 18 17 17 17 17
19 19 19 19 19 19 19 19 19 19 19 19 19 18 18 18 18 18 17 17 17 17 17 17 17 17 17 17 17 17 17 17 17 17 17 17 17 17 17 17 17 17 17
19 19 19 19 19 19 19 19 19 19 19 18 18 18 18 18 18 17 17 17 17 17 17 17 17 17 17 17 17 17 17 17 17 17 17 17 17 17 17 17 17 17 17
19 19 19 19 19 19 19 19 19 18 18 18 18 18 18 18 18 18 17 17 17 17 17 17 17 17 17 17 17 17 17 17 17 17 17 17 17 17 17 17 16 16 16
19 19 19 19 19 19 19 19 18 18 18 18 18 18 18 18 18 18 18 17 17 17 17 17 17 17 17 17 17 17 17 17 17 17 16 16 17 16 16 16 16 16 16
19 19 19 19 19 18 18 18 18 18 18 18 18 18 18 18 18 18 18 18 18 17 17 17 17 17 17 17 17 17 17 17 17 16 16 16 16 16 16 16 16 16 16
19 19 18 18 18 18 18 18 18 18 18 18 18 18 18 18 18 18 18 18 18 17 17 17 17 16 17 17 17 17 17 17 16 16 16 16 16 16 16 16 16 16 16
18 18 18 18 18 18 18 17 17 17 17 17 17 17 17 18 18 18 18 18 18 18 18 17 17 17 16 16 16 17 17 17 16 16 16 16 16 16 16 16 16 16 16
18 18 18 17 17 17 17 17 17 17 17 17 17 17 17 17 18 18 18 18 18 18 17 17 17 17 17 16 16 16 16 16 16 16 16 16 16 16 16 16 16 16 16
18 18 17 17 17 17 17 17 17 17 17 17 17 17 17 17 17 17 17 18 18 18 17 17 17 17 17 16 16 16 16 16 16 16 16 16 16 16 16 16 16 16 16
18 17 17 17 17 17 17 17 17 16 16 16 16 17 17 16 16 17 17 17 17 17 17 17 17 17 17 16 16 16 16 16 16 16 16 16 16 16 16 16 16 16 16
17 17 16 16 16 17 17 17 16 16 16 16 16 16 16 16 16 16 16 16 17 17 17 17 17 17 16 16 16 16 16 16 16 16 16 16 16 16 16 16 16 16 16
16 16 16 16 16 16 16 16 16 16 16 16 16 16 16 16 16 16 16 16 16 16 16 17 16 16 16 16 16 16 16 16 16 16 16 16 16 16 16 16 16 16 16
15 15 15 16 16 16 16 16 16 16 16 16 16 16 16 15 15 15 15 15 15 16 16 16 16 16 16 16 16 16 16 16 16 16 16 16 16 16 16 16 16 16 16
15 15 15 16 16 16 16 16 16 16 16 16 15 15 15 15 15 15 15 15 15 15 15 16 16 16 16 16 15 15 15 16 16 16 16 16 16 16 16 16 16 16 16
15 15 15 16 16 16 16 16 16 16 15 15 15 15 15 15 15 15 15 15 14 14 15 15 16 16 16 15 15 15 15 15 15 15 15 15 16 16 16 16 15 15 15
15 15 16 16 16 16 16 16 16 16 16 15 15 15 15 15 14 14 14 14 14 14 14 15 15 15 15 15 15 15 15 15 15 15 15 15 15 15 15 15 15 15 15
16 16 16 16 16 16 16 16 16 16 16 15 15 15 15 15 14 14 14 14 14 14 14 14 15 15 15 15 15 15 15 15 15 15 15 15 15 15 15 15 15 15 15
16 16 16 16 16 16 16 16 16 16 16 15 15 15 15 15 14 14 14 14 14 14 14 14 14 14 14 14 14 14 14 14 14 14 15 15 15 15 15 15 15 15 15
15 16 16 16 16 16 16 16 16 16 16 15 15 15 15 15 15 14 14 14 14 14 14 14 14 14 14 14 14 14 14 14 14 14 14 14 15 15 15 15 15 15 15
15 15 15 16 16 16 16 16 16 16 15 15 15 15 15 15 15 14 14 14 14 14 14 14 14 14 14 14 14 14 14 14 13 13 13 14 14 14 15 15 15 15 15
15 15 15 15 15 15 15 15 15 15 15 15 15 15 15 15 15 15 14 14 14 14 14 14 13 13 13 13 13 13 13 13 13 13 13 13 13 14 14 14 14 14 14
14 14 14 14 14 15 15 15 15 15 15 15 15 15 15 14 14 14 14 14 14 14 14 14 13 13 13 13 13 13 13 13 13 13 13 13 13 13 13 13 13 13 14
13 13 13 13 13 13 14 14 15 15 15 14 14 14 14 14 14 14 14 14 14 14 14 14 13 13 13 13 13 13 13 12 13 13 13 13 13 13 13 13 13 13 13
12 12 12 12 12 12 13 13 14 14 14 14 14 14 14 14 14 14 14 14 14 14 14 14 14 13 13 13 13 13 13 12 12 12 12 12 12 12 13 13 13 13 12
12 12 12 12 12 12 12 13 13 13 13 13 13 13 14 14 14 14 14 14 14 14 14 13 13 13 13 13 13 13 12 12 12 12 12 12 12 12 12 12 12 12 12
Wind_Speed
5 3 4 8 8 9 6 4 5 2 2 5 4 5 4 4 7 12 10 9 6 5 4 4 4 3 3 3 3 3 4 4 5 5 6 6 5 5 4 3 3 2 2
3 3 3 3 3 6 7 5 2 3 1 2 3 4 3 4 5 11 12 10 8 6 5 5 5 4 4 3 3 3 3 4 4 4 5 5 5 4 4 3 2 2 1
6 4 3 5 3 5 6 3 1 3 2 3 2 1 3 2 2 8 12 12 10 8 8 7 6 5 4 4 3 3 3 3 3 3 4 4 4 4 3 3 2 1 1
9 5 2 3 3 4 2 3 2 1 1 2 3 2 3 2 2 5 8 11 12 10 9 9 8 7 6 5 4 4 3 3 3 2 3 3 3 3 3 3 3 3 3
8 6 3 1 2 2 2 2 2 1 0 1 1 1 1 3 2 3 4 10 13 14 12 10 10 9 7 5 4 4 4 3 3 3 3 2 2 2 3 3 4 4 4
4 5 3 2 2 3 1 1 1 1 1 1 2 2 1 1 2 2 1 5 9 14 15 13 12 9 9 7 6 5 4 3 3 3 3 2 1 1 2 3 4 5 5
2 4 3 2 2 3 1 1 0 1 1 1 2 2 2 3 4 3 2 2 3 9 14 15 13 12 10 9 8 6 5 4 3 3 3 2 1 0 1 2 3 4 5
1 3 4 3 2 1 1 2 1 1 1 1 1 0 2 3 3 3 3 2 2 4 4 8 13 14 13 12 11 9 6 5 4 4 3 2 1 1 1 1 2 3 3
3 2 2 3 3 3 3 4 4 4 4 3 2 3 3 4 2 3 4 4 4 3 3 3 6 13 15 15 14 11 9 6 5 4 3 2 1 1 1 1 2 3 3
3 3 2 0 2 3 4 5 6 5 5 5 4 4 4 3 3 2 3 2 3 4 4 3 2 2 11 14 16 15 12 9 6 4 3 2 1 0 1 2 2 3 3
4 3 1 1 3 3 5 6 5 5 6 6 5 4 4 3 4 3 3 3 2 2 2 2 3 3 6 14 16 17 15 11 8 6 4 3 2 1 1 1 2 3 3
3 2 1 1 3 4 5 5 5 6 6 7 6 5 4 3 4 4 4 4 3 3 3 2 3 4 6 11 14 19 17 14 11 8 6 5 3 3 2 2 2 2 3
2 1 2 2 3 4 4 3 3 4 6 6 6 5 5 5 3 3 3 4 4 3 2 2 3 3 7 9 12 21 18 16 14 11 9 7 5 4 3 2 2 3 3
2 3 3 3 3 3 3 2 1 3 3 4 5 5 4 4 4 4 4 3 3 3 3 3 2 3 5 9 14 21 16 18 16 14 12 10 8 6 5 3 3 2 3
3 3 2 3 4 3 2 2 2 2 1 1 1 2 2 3 3 4 4 4 4 4 5 5 3 2 3 4 10 17 15 19 19 18 16 14 12 10 8 6 4 3 2
1 2 3 5 5 5 4 2 1 0 1 1 1 2 3 2 2 3 3 3 4 5 4 4 4 2 1 2 6 11 13 19 23 21 19 17 15 13 11 9 7 6 5
3 4 5 4 4 5 5 4 3 3 2 2 3 3 3 3 3 3 3 4 4 4 5 4 3 2 2 2 3 7 8 10 16 21 21 20 18 16 14 12 11 9 8
4 4 4 3 2 2 3 4 4 4 3 3 2 2 3 3 4 3 3 4 4 5 5 5 4 3 4 4 3 4 4 7 10 19 23 22 20 18 17 15 14 13 12
4 4 3 2 2 3 2 2 3 3 4 4 3 3 3 1 1 2 3 4 4 4 4 4 4 2 2 1 2 2 3 3 5 10 20 21 20 20 19 18 17 16 15
5 5 3 2 0 2 2 1 1 1 2 2 2 1 2 3 3 2 0 1 1 2 2 3 3 2 2 1 1 2 3 3 3 3 7 13 17 20 20 20 20 19 19
7 8 7 6 5 4 6 6 6 4 2 1 0 3 6 6 6 4 3 3 3 1 0 1 1 1 1 2 2 2 3 3 3 2 2 4 7 9 13 19 21 21 21
9 9 9 8 8 7 9 10 7 7 5 3 1 2 5 6 5 4 3 2 2 2 1 1 0 1 1 2 2 2 2 1 2 1 1 3 3 5 6 10 15 20 22
8 8 8 7 7 8 10 10 9 6 6 4 2 0 1 4 3 2 3 4 3 3 2 0 1 0 0 1 1 1 2 2 3 1 0 3 2 4 3 6 8 12 16
7 7 7 7 6 8 11 10 9 6 6 5 3 2 2 3 4 4 2 1 1 4 5 2 1 2 2 2 2 1 2 1 1 1 2 2 2 2 2 4 5 6 9
6 6 6 7 7 7 11 10 8 4 4 3 3 5 5 5 6 6 4 4 3 2 3 2 2 2 2 2 2 1 1 0 2 2 2 1 2 2 2 2 3 5 7
6 5 5 6 7 7 10 12 10 4 4 3 3 5 8 7 6 7 5 5 4 3 2 1 0 0 2 2 2 1 1 0 1 2 1 1 2 1 2 1 0 2 4
Wind_Direction
213 171 181 167 186 180 172 240 245 162 47 59 47 63 75 84 106 114 126 128 128 127 134 136 130 132 131 126 130 146 154 154 157 158 159 156 151 141 133 127 119 108 91
205 152 206 144 200 164 169 221 210 113 87 76 52 61 45 59 109 127 137 136 133 127 124 130 129 121 123 131 132 139 157 165 168 173 178 181 176 165 158 155 151 142 131
188 165 205 154 196 177 182 220 127 111 126 133 138 104 89 47 52 130 142 149 143 130 124 122 127 127 122 122 127 133 137 152 169 184 192 195 195 189 187 189 191 193 209
181 165 172 149 184 175 155 114 50 94 147 179 168 168 144 140 240 145 159 155 152 144 136 131 128 128 124 119 125 123 126 132 144 160 179 189 200 214 220 224 232 237 239
176 152 145 142 158 114 109 149 170 162 207 150 137 142 202 170 182 205 184 155 152 152 149 147 143 139 136 131 132 137 134 132 137 135 141 152 188 225 241 245 249 250 249
148 130 130 158 122 112 83 19 131 94 29 1 290 202 192 199 229 237 166 150 167 161 161 165 161 157 152 146 141 141 144 139 144 144 143 145 159 207 247 257 258 257 252
92 111 125 121 87 108 134 275 310 163 247 285 321 342 323 264 251 184 209 231 206 155 165 172 175 167 160 154 148 146 144 143 139 140 135 127 123 186 278 271 267 265 256
109 110 124 127 122 127 188 263 287 166 256 253 179 150 316 311 297 242 204 208 254 157 193 188 173 164 166 162 162 151 144 145 145 139 125 117 101 83 1 311 285 276 267
73 73 110 143 170 172 202 234 241 217 219 246 220 173 188 227 268 285 240 207 209 183 199 226 187 174 166 160 158 155 150 147 148 145 134 125 115 82 27 352 331 304 280
69 53 23 316 206 191 203 224 230 221 211 227 238 227 216 193 183 272 295 265 220 205 204 201 205 155 158 148 157 159 159 159 160 163 163 154 140 123 337 337 327 320 299
83 62 348 295 265 233 218 219 233 222 217 222 225 224 230 240 226 207 250 283 291 258 232 223 175 187 158 148 154 165 168 171 176 186 191 190 194 199 260 326 336 333 322
98 88 306 281 272 259 245 225 217 223 222 225 225 219 211 208 214 215 222 236 250 262 247 223 184 180 171 160 167 171 174 178 183 190 196 201 206 216 237 265 303 326 323
113 161 217 230 253 261 261 237 223 225 221 223 224 222 221 226 230 222 219 234 240 253 262 237 207 195 187 171 165 172 179 183 188 193 197 199 200 204 218 245 280 304 313
172 204 215 222 230 243 262 252 248 244 232 222 224 221 215 228 225 218 211 214 238 248 246 245 234 214 206 189 181 179 185 190 193 197 200 201 202 204 212 226 248 279 303
182 188 211 216 215 212 229 234 231 254 253 277 269 259 227 225 215 217 215 198 195 221 237 234 230 217 194 196 190 191 188 196 199 201 202 204 206 208 211 217 225 239 265
175 197 229 224 202 189 190 176 197 270 283 251 208 260 258 247 237 219 221 216 202 202 232 234 221 219 189 189 185 202 205 201 202 202 203 205 207 210 213 217 222 229 240
246 241 237 227 200 179 179 169 191 184 210 260 242 224 231 232 227 221 220 222 219 206 227 250 233 212 192 190 203 235 228 195 201 205 205 206 208 210 213 217 223 228 234
262 261 249 235 163 157 181 169 184 178 189 219 241 245 246 224 217 221 222 229 226 215 213 240 245 215 210 205 205 230 239 212 205 209 208 208 210 212 215 219 224 228 232
285 272 256 238 176 174 163 168 190 194 189 201 212 219 229 200 216 212 221 232 233 235 217 224 248 227 208 200 216 247 259 265 246 212 207 211 214 216 218 222 225 229 232
328 326 329 341 249 172 152 214 240 202 184 196 204 195 91 74 59 26 299 241 240 242 232 228 242 242 206 183 187 232 257 254 262 237 210 213 218 222 225 226 229 231 233
0 2 4 8 17 26 34 25 3 355 357 339 342 90 93 98 89 67 55 36 27 14 292 236 247 231 211 183 213 212 237 258 263 249 235 220 212 219 225 232 234 235 234
13 12 10 12 15 28 28 26 11 348 340 336 6 112 146 151 139 142 147 132 89 47 32 22 323 244 249 223 220 209 217 236 265 275 233 248 217 230 231 227 232 233 234
22 15 12 12 23 31 21 11 2 338 319 316 327 3 94 103 134 172 196 211 210 196 198 20 10 334 295 181 173 218 222 219 236 246 206 270 252 251 255 257 253 237 233
24 22 17 13 24 29 18 6 350 317 305 311 326 1 62 80 50 35 17 289 198 185 201 203 84 69 69 92 132 173 200 224 257 222 148 267 285 266 269 276 272 244 239
27 26 20 18 24 24 16 7 351 315 318 331 15 36 49 69 47 31 10 355 13 64 149 136 105 118 124 112 100 77 78 347 299 264 174 222 279 284 282 269 258 235 244
26 26 27 26 27 23 18 17 6 344 342 6 53 64 60 62 47 29 13 21 32 13 24 68 95 233 212 213 215 232 244 264 301 314 174 201 291 328 326 310 242 234 254
Height
1547 1549 1550 1550 1551 1552 1553 1554 1555 1558 1559 1559 1560 1561 1561 1561 1561 1560 1561 1561 1561 1561 1561 1561 1562 1563 1563 1564 1565 1565 1566 1567 1568 1569 1570 1571 1572 1573 1574 1574 1575 1575 1576
1547 1548 1550 1550 1552 1553 1554 1555 1556 1557 1558 1559 1560 1560 1561 1561 1561 1560 1560 1560 1560 1560 1561 1561 1562 1562 1563 1564 1564 1565 1566 1566 1567 1568 1569 1570 1571 1572 1573 1573 1574 1574 1575
1545 1547 1549 1549 1551 1553 1554 1555 1556 1557 1558 1558 1559 1560 1560 1561 1561 1560 1560 1560 1560 1560 1560 1561 1561 1562 1562 1563 1563 1564 1565 1565 1566 1567 1568 1569 1570 1571 1572 1572 1573 1573 1573
1544 1545 1547 1548 1550 1551 1553 1554 1555 1556 1557 1558 1559 1559 1560 1560 1560 1560 1560 1559 1559 1560 1560 1560 1561 1561 1562 1562 1563 1563 1564 1564 1565 1566 1567 1568 1569 1569 1570 1571 1571 1571 1572
1541 1543 1545 1547 1548 1550 1551 1553 1554 1555 1556 1557 1558 1559 1559 1560 1560 1560 1560 1560 1559 1559 1560 1560 1560 1561 1561 1561 1562 1562 1563 1563 1564 1564 1565 1566 1567 1567 1568 1569 1569 1569 1570
1539 1540 1542 1544 1546 1547 1549 1551 1552 1554 1555 1556 1557 1558 1558 1559 1559 1560 1560 1560 1560 1559 1559 1560 1560 1560 1560 1560 1561 1561 1562 1562 1563 1563 1563 1564 1565 1565 1566 1566 1567 1567 1568
1536 1537 1539 1541 1543 1544 1546 1548 1550 1551 1553 1554 1555 1556 1556 1557 1557 1558 1558 1559 1559 1559 1558 1558 1558 1559 1559 1559 1560 1560 1560 1561 1561 1562 1562 1562 1563 1563 1564 1564 1564 1565 1565
1533 1534 1536 1538 1540 1542 1544 1545 1547 1548 1550 1552 1553 1553 1554 1555 1555 1556 1556 1557 1558 1558 1558 1558 1558 1558 1558 1558 1559 1559 1559 1560 1560 1560 1561 1561 1561 1562 1562 1562 1562 1563 1563
1528 1531 1533 1535 1536 1538 1540 1542 1544 1545 1546 1548 1550 1551 1551 1551 1552 1553 1554 1554 1555 1556 1556 1557 1558 1557 1556 1556 1557 1558 1558 1559 1559 1559 1560 1560 1560 1560 1560 1560 1561 1561 1561
1523 1526 1529 1531 1533 1535 1536 1538 1540 1541 1543 1544 1545 1547 1548 1549 1550 1550 1551 1551 1552 1553 1554 1555 1556 1557 1556 1555 1555 1556 1557 1557 1558 1558 1558 1559 1559 1559 1559 1559 1559 1559 1559
1519 1522 1524 1527 1530 1532 1533 1534 1536 1537 1539 1540 1541 1542 1544 1545 1546 1547 1547 1548 1549 1550 1551 1552 1552 1554 1554 1553 1553 1554 1555 1556 1556 1556 1557 1557 1557 1557 1558 1558 1557 1557 1557
1514 1518 1521 1523 1526 1528 1529 1530 1532 1533 1534 1536 1537 1538 1539 1540 1541 1543 1544 1545 1546 1547 1548 1548 1549 1550 1551 1551 1551 1552 1553 1553 1554 1554 1555 1555 1555 1556 1556 1556 1556 1555 1555
1510 1514 1517 1520 1522 1525 1526 1527 1528 1530 1531 1532 1533 1534 1535 1537 1538 1539 1540 1541 1542 1543 1544 1545 1545 1546 1547 1548 1549 1549 1550 1551 1551 1552 1552 1553 1553 1554 1554 1554 1554 1554 1553
1508 1511 1514 1517 1519 1521 1523 1525 1526 1527 1528 1529 1530 1531 1532 1533 1534 1535 1536 1538 1538 1539 1540 1541 1541 1542 1543 1544 1545 1546 1547 1548 1549 1549 1550 1550 1551 1551 1552 1552 1552 1552 1551
1507 1510 1513 1515 1518 1519 1521 1523 1524 1524 1525 1526 1527 1528 1528 1529 1530 1531 1532 1533 1535 1535 1535 1536 1538 1538 1539 1540 1542 1543 1544 1545 1546 1546 1547 1548 1548 1549 1549 1550 1550 1549 1549
1509 1510 1512 1514 1517 1518 1519 1521 1522 1522 1523 1523 1524 1525 1526 1526 1526 1527 1528 1529 1530 1531 1531 1532 1533 1534 1535 1536 1537 1539 1540 1541 1542 1543 1544 1545 1546 1546 1547 1547 1547 1547 1547
1509 1511 1512 1514 1516 1517 1518 1519 1520 1520 1521 1521 1522 1523 1523 1523 1523 1524 1525 1525 1526 1527 1527 1528 1529 1530 1531 1532 1533 1535 1537 1537 1538 1539 1540 1541 1542 1543 1544 1544 1545 1545 1545
1510 1511 1512 1514 1515 1516 1517 1518 1519 1519 1520 1520 1520 1520 1521 1521 1521 1521 1521 1522 1522 1523 1524 1524 1525 1526 1527 1528 1529 1530 1531 1532 1533 1534 1536 1537 1538 1539 1540 1541 1541 1542 1542
1510 1511 1512 1513 1514 1515 1517 1518 1518 1519 1519 1519 1519 1519 1519 1519 1519 1519 1519 1519 1519 1520 1520 1520 1520 1522 1522 1523 1524 1526 1526 1528 1529 1530 1531 1532 1534 1535 1536 1537 1538 1538 1539
1510 1511 1511 1512 1513 1514 1515 1516 1517 1518 1518 1519 1519 1519 1518 1518 1517 1517 1517 1517 1517 1517 1517 1517 1517 1518 1518 1519 1520 1521 1522 1523 1524 1525 1526 1527 1529 1530 1531 1532 1533 1534 1535
1509 1509 1510 1510 1511 1512 1513 1514 1516 1516 1517 1517 1518 1518 1517 1517 1516 1516 1516 1516 1516 1516 1516 1515 1515 1515 1516 1516 1516 1517 1517 1518 1519 1520 1521 1522 1523 1524 1526 1527 1528 1529 1530
1508 1508 1509 1509 1510 1510 1511 1512 1513 1514 1515 1516 1516 1516 1516 1516 1516 1516 1516 1515 1515 1515 1515 1515 1514 1514 1514 1514 1514 1514 1514 1514 1515 1517 1517 1518 1518 1519 1520 1521 1522 1524 1525
1508 1508 1508 1508 1508 1508 1509 1509 1510 1511 1512 1513 1514 1515 1515 1515 1515 1516 1516 1516 1515 1515 1515 1515 1514 1514 1514 1513 1513 1512 1512 1512 1513 1513 1513 1513 1514 1515 1516 1516 1517 1518 1519
1509 1508 1508 1507 1507 1506 1506 1507 1507 1509 1510 1511 1512 1513 1513 1514 1515 1515 1515 1515 1515 1515 1515 1515 1514 1514 1513 1513 1513 1512 1512 1511 1511 1511 1511 1510 1510 1510 1511 1512 1512 1513 1514
1510 1509 1508 1507 1507 1506 1505 1505 1505 1506 1507 1509 1510 1511 1511 1512 1513 1514 1514 1515 1515 1515 1515 1515 1514 1514 1513 1513 1512 1512 1511 1511 1510 1510 1510 1509 1509 1508 1508 1508 1509 1509 1510
1512 1510 1510 1509 1507 1506 1505 1504 1504 1505 1506 1507 1508 1509 1510 1511 1512 1513 1513 1514 1514 1515 1514 1514 1514 1513 1513 1513 1512 1512 1511 1511 1510 1510 1509 1509 1508 1508 1507 1507 1507 1507 1507